Weather History for KMHE - October, 2012

Change the Weather History Date:

Sunday, October 7, 2012

  Actual Average Record
Temperature  
Mean Temperature 44 °F 53 °F  
Max Temperature 60 °F 66 °F 90 °F (1942)
Min Temperature 27 °F 40 °F 19 °F (1952)
Degree Days  
Heating Degree Days 21 12  
Month to date heating degree days 112 77  
Since 1 July heating degree days 253 235  
Cooling Degree Days 0 1  
Month to date cooling degree days 0 7  
Year to date cooling degree days 1236 824  
Moisture  
Dew Point 22 °F    
Average Humidity 46    
Maximum Humidity 75    
Minimum Humidity 17    
Precipitation  
Precipitation 0.00 in 0.06 in 0.95 in (2011)
Month to date precipitation T 0.45  
Year to date precipitation 20.36 19.12  
Snow  
Snow 0.00 in - 2.00 in (1970)
Month to date snowfall 0.0  
Since 1 July snowfall 0.0  
Since 1 September snowfall 0.0  
Snow Depth 0.00 in    
Sea Level Pressure  
Sea Level Pressure 30.08 in    
Wind  
Wind Speed 8 mph (SW)    
Max Wind Speed 20 mph    
Max Gust Speed 29 mph    
Visibility 10 miles    
Events      
T = Trace of Precipitation, MM = Missing Value Source: NWS Daily Summary

Daily Weather History Graph

Daily Weather History Graph

Search for Another Location

Airport or City:

Trip Planner

Search our weather history database for the weather conditions in past years. The results will help you decide how hot, cold, wet, or windy it might be!

Date:

Astronomy

Oct. 07, 2012 Rise Set
Actual Time 7:37 AM CDT 7:01 PM CDT
Civil Twilight 7:08 AM CDT 7:30 PM CDT
Nautical Twilight 6:35 AM CDT 8:03 PM CDT
Astronomical Twilight 6:01 AM CDT 8:36 PM CDT
Moon No Moon Rise 2:23 PM CDT (10/7)
Length of Visible Light 12h 21m
Length of Day
11h 24m
Waning Gibbous, 56% of the Moon is Illuminated
Oct 7
Waning Gibbous
Oct 8
Last Quarter
Oct 15
New
Oct 21
First Quarter
Oct 29
Full

Hourly Weather History & Observations

Time (CDT) Temp. Windchill Dew Point Humidity Pressure Visibility Wind Dir Wind Speed Gust Speed Precip Events Conditions
12:53 AM 30.0 °F 25.2 °F 21.0 °F 69% 30.30 in 10.0 mi SW 4.6 mph - N/A   Clear
1:53 AM 32.0 °F 25.6 °F 19.9 °F 61% 30.29 in 10.0 mi SSW 6.9 mph - N/A   Clear
2:53 AM 30.0 °F 25.2 °F 19.9 °F 66% 30.27 in 10.0 mi SSW 4.6 mph - N/A   Clear
3:53 AM 28.0 °F 20.8 °F 19.0 °F 69% 30.25 in 10.0 mi SSW 6.9 mph - N/A   Clear
4:53 AM 28.0 °F 20.8 °F 19.9 °F 72% 30.23 in 10.0 mi SSW 6.9 mph - N/A   Clear
5:53 AM 28.0 °F - 19.9 °F 72% 30.22 in 10.0 mi North - - N/A   Clear
6:53 AM 28.0 °F - 19.9 °F 72% 30.21 in 10.0 mi North - - N/A   Unknown
7:53 AM 28.0 °F 20.8 °F 21.0 °F 75% 30.19 in 10.0 mi SSW 6.9 mph - N/A   Clear
8:53 AM 32.0 °F 25.6 °F 21.9 °F 66% 30.18 in 10.0 mi SSW 6.9 mph - N/A   Clear
9:53 AM 39.9 °F 33.9 °F 26.1 °F 58% 30.16 in 10.0 mi SW 9.2 mph - N/A   Clear
10:53 AM 46.0 °F 42.5 °F 26.1 °F 46% 30.14 in 10.0 mi SW 6.9 mph - N/A   Clear
11:53 AM 51.1 °F - 26.1 °F 38% 30.09 in 10.0 mi South 9.2 mph - N/A   Clear
12:53 PM 55.0 °F - 25.0 °F 31% 30.06 in 10.0 mi SSW 11.5 mph 19.6 mph N/A   Clear
1:53 PM 57.0 °F - 21.0 °F 25% 30.01 in 10.0 mi WSW 17.3 mph 25.3 mph N/A   Clear
2:53 PM 57.9 °F - 14.0 °F 18% 29.98 in 10.0 mi West 13.8 mph 20.7 mph N/A   Clear
3:53 PM 60.1 °F - 16.0 °F 18% 29.96 in 10.0 mi West 10.4 mph 18.4 mph N/A   Clear
4:53 PM 60.1 °F - 16.0 °F 18% 29.95 in 10.0 mi WSW 11.5 mph - N/A   Partly Cloudy
5:53 PM 59.0 °F - 17.1 °F 20% 29.92 in 10.0 mi West 8.1 mph - N/A   Clear
6:53 PM 54.0 °F - 21.9 °F 29% 29.92 in 10.0 mi West 4.6 mph - N/A   Clear
7:53 PM 52.0 °F - 24.1 °F 34% 29.92 in 10.0 mi WSW 4.6 mph - N/A   Clear
8:53 PM 46.9 °F - 30.0 °F 52% 29.92 in 10.0 mi SSW 5.8 mph - N/A   Clear
9:53 PM 45.0 °F 41.8 °F 26.1 °F 48% 29.91 in 10.0 mi SSW 5.8 mph - N/A   Partly Cloudy
10:53 PM 44.1 °F 39.5 °F 24.1 °F 45% 29.89 in 10.0 mi SSW 8.1 mph - N/A   Clear
11:53 PM 43.0 °F 39.5 °F 24.1 °F 47% 29.87 in 10.0 mi SSW 5.8 mph - N/A   Clear